Weather in Pineda de Mar

Spain     41°37′30″N   2°41′07″E
temp.,
°C
wind,
m/s
gust,
m/s
humid.,
%
clouds,
%
prec.,
mm/h
press.,
hPa
HPBL,
m
2 march, tue
tue201:00+9nnw229473 0.0 102868
04:00+8nnw239453 0.0 102769
07:00+8n358959 0.0 1028176
10:00+12n356693 0.0 1029443
13:00+17ene335078 0.0 1030973
16:00+16e345967 0.0 1029794
19:00+10e129473 0.0 103039
22:00+10n2295100 0.0 103135
3 march, wed
wed301:00+9nnw129598 0.0 103130
04:00+8nnw119475 0.0 103027
07:00+8n119383 0.0 103127
10:00+13nne117699 0.0 1031283
13:00+15sse3363100 0.0 1031720
16:00+14sse3467100 0.0 1028398
19:00+10s129498 0.0 102826
22:00+9sw129467 0.0 102824
4 march, thu
thu401:00+8sw129334 0.0 102729
04:00+8wsw12940 0.0 102530
07:00+7sw12940 0.0 102436
10:00+13s25770 0.0 1024554
13:00+15s56660 0.0 1023764
16:00+14s57720 0.0 1020622
19:00+10ssw36940 0.0 1019188
22:00+9sw23962 0.0 102064
5 march, fri
fri501:00+8sw22952 0.0 101949
04:00+7w11940 0.0 101738
07:00+7nw11929 0.0 101728
10:00+13nne127079 0.0 1018280
13:00+16se336187 0.0 1017916
16:00+13se2379100 0.9 1016448
19:00+11wnw1189100 1.8 101733
22:00+10nnw348899 0.7 1019160
6 march, sat
sat601:00+10nw128599 0.8 102039
04:00+9ne1287100 0.1 102039
07:00+9ene0191100 0.2 102141
10:00+12se127794 0.0 1022490
13:00+13se337187 0.3 1023748
16:00+11se137898 0.1 1022364
19:00+8sw118880 0.1 102244
22:00+9nnw128990 0.0 102442